Location: Newark
(50.8964°N, 1.4048°W)
Time: 06:19:40
(UTC+00:00)

N. Korean satellite - Pass Details

Date: 26 January 2020
Orbit: 456 x 505 km, 97.2° (Epoch: 27 February)

Event Time Altitude Azimuth Distance (km) Brightness Sun altitude
Rises 06:49:34 0° 4° (N) 2,537 10.1 -9.7°
Reaches altitude 10° 06:51:47 10° 353° (N) 1,662 9.0 -9.4°
Maximum altitude 06:54:54 29° 292° (WNW) 918 7.4 -8.9°
Drops below altitude 10° 06:58:02 10° 231° (SW) 1,675 9.0 -8.4°
Sets 07:00:17 0° 220° (SW) 2,560 10.0 -8.1°
